Location: Benque
(43.2594°N, 0.9178°E)
Time: 04:25:55
(UTC+00:00)

Cosmos 2221 - Pass Details

Date: 24 January 2020
Orbit: 593 x 616 km, 82.5° (Epoch: 17 February)

Event Time Altitude Azimuth Distance (km) Brightness Sun altitude
Rises 18:57:40 0° 354° (N) 2,844 6.0 -21.8°
Reaches altitude 10° 18:59:54 10° 357° (N) 1,939 5.1 -22.2°
Enters shadow 19:02:04 29° 4° (N) 1,107 3.7 -22.6°
